User: anonymous   Login
Location: Unspecified
(0.0000°N, 0.0000°E)
Time: 11:56:43
(UTC+00:00)
Language:

A-11 Canister half - Orbit

View from above orbital plane
View from above orbital plane
View from above satellite
View from above satellite

Ground track
Ground track

The orbit data is extracted from the following two-line orbital elements,

1 00053U 60009E   15083.97052419 -.00000084  00000-0  00000+0 0  9999
2 00053 047.2778 033.2786 0097338 193.9252 165.8846 12.17162128435758
Epoch (UTC): 24 March 2015 23:17:33
Eccentricity: 0.0097338
inclination: 47.2778°
perigee height: 1527 km
apogee height: 1682 km
right ascension of ascending node: 33.2786°
argument of perigee: 193.9252°
revolutions per day: 12.17162128
mean anomaly at epoch: 165.8846°
orbit number at epoch: 43575

The dashed part of the orbit path shows where the satellite is in the earth's shadow,  

DLR